This is the latest recevied weather packets stored in our database for station/object OE5WWO. If no packets are shown the sender has not sent any weather packets the latest 10 day(s).
| Time | Temp. | Humidity | Pressure | Rain* | Wind** | Luminosity | Snow |
|---|---|---|---|---|---|---|---|
| 1777208452 | 20.56° C | 27% | 1020.9 hPa | 0 mm | - | - | - |
| 1777207836 | 20.56° C | 29% | 1020.8 hPa | 0 mm | - | - | - |
| 1777207239 | 20.56° C | 28% | 1021 hPa | 0 mm | - | - | - |
| 1777204237 | 19.44° C | 32% | 1021.1 hPa | 0 mm | - | - | - |
| 1777203639 | 18.89° C | 33% | 1021.1 hPa | 0 mm | - | - | - |
| 1777201255 | 18.33° C | 41% | 1021.4 hPa | 0 mm | - | - | - |
| 1777198545 | 17.78° C | 41% | 1021.5 hPa | 0 mm | - | - | - |
| 1777196137 | 16.67° C | 41% | 1021.6 hPa | 0 mm | - | - | - |
| 1777195537 | 16.67° C | 42% | 1021.7 hPa | 0 mm | - | - | - |
| 1777194950 | 16.67° C | 41% | 1021.7 hPa | 0 mm | - | - | - |
| 1777193437 | 16.11° C | 45% | 1021.7 hPa | 0 mm | - | - | - |
| 1777193155 | 16.11° C | 43% | 1021.5 hPa | 0 mm | - | - | - |
| 1777190739 | 15° C | 44% | 1021.5 hPa | 0 mm | - | - | - |
| 1777189235 | 14.44° C | 48% | 1021.4 hPa | 0 mm | - | - | - |
| 1777188036 | 13.89° C | 45% | 1021.4 hPa | 0 mm | - | - | - |
| 1777187438 | 13.89° C | 49% | 1021.3 hPa | 0 mm | - | - | - |
| 1777187137 | 13.33° C | 50% | 1021.3 hPa | 0 mm | - | - | - |
| 1777183841 | 12.22° C | 52% | 1020.8 hPa | 0 mm | - | - | - |
| 1777183536 | 11.67° C | 52% | 1020.8 hPa | 0 mm | - | - | - |
| 1777182938 | 11.67° C | 56% | 1020.6 hPa | 0 mm | - | - | - |
| 1777182354 | 11.11° C | 56% | 1020.6 hPa | 0 mm | - | - | - |
| 1777181737 | 10° C | 56% | 1020.4 hPa | 0 mm | - | - | - |
| 1777181135 | 10° C | 58% | 1020.4 hPa | 0 mm | - | - | - |
| 1777180554 | 9.44° C | 60% | 1020.2 hPa | 0 mm | - | - | - |
| 1777179648 | 7.78° C | 65% | 1020.1 hPa | 0 mm | - | - | - |
* Rain latest hour (hover to see other rain measurements)
** Current wind speed in m/s (hover to see current wind gust speed)